This is the latest recevied weather packets stored in our database for station/object EA2ESA-13. If no packets are shown the sender has not sent any weather packets the latest 10 day(s).
| Time | Temp. | Humidity | Pressure | Rain* | Wind** | Luminosity | Snow |
|---|---|---|---|---|---|---|---|
| 1777974773 | 16.67° C | 76% | 1018.7 hPa | 0 mm | 0 m/s | - | - |
| 1777974173 | 16.11° C | 77% | 1018.7 hPa | 0 mm | 0 m/s | - | - |
| 1777973572 | 15.56° C | 78% | 1018.7 hPa | 0 mm | 0 m/s | - | - |
| 1777972971 | 15.56° C | 80% | 1018.6 hPa | 0 mm | 0 m/s | - | - |
| 1777972370 | 15.56° C | 80% | 1018.6 hPa | 0 mm | 0 m/s | - | - |
| 1777971769 | 15° C | 82% | 1018.6 hPa | 0 mm | 0 m/s | - | - |
| 1777971168 | 14.44° C | 84% | 1018.6 hPa | 0 mm | 0 m/s | - | - |
| 1777970567 | 13.89° C | 85% | 1018.6 hPa | 0 mm | 0 m/s | - | - |
| 1777969966 | 13.33° C | 84% | 1018.7 hPa | 0 mm | 0 m/s | - | - |
| 1777969365 | 13.33° C | 84% | 1018.8 hPa | 0 mm | 0 m/s | - | - |
| 1777968764 | 12.78° C | 84% | 1018.8 hPa | 0 mm | 0 m/s | - | - |
| 1777968163 | 13.33° C | 85% | 1018.8 hPa | 0 mm | 0 m/s | - | - |
| 1777967563 | 12.78° C | 85% | 1018.9 hPa | 0 mm | 0 m/s | - | - |
| 1777966962 | 12.22° C | 84% | 1018.9 hPa | 0 mm | 0 m/s | - | - |
| 1777966361 | 12.22° C | 84% | 1018.9 hPa | 0 mm | 0 m/s | - | - |
| 1777965760 | 12.22° C | 84% | 1018.8 hPa | 0 mm | 0 m/s | - | - |
| 1777965159 | 12.78° C | 84% | 1018.7 hPa | 0 mm | 0 m/s | - | - |
| 1777964557 | 12.78° C | 84% | 1018.7 hPa | 0 mm | 0 m/s | - | - |
| 1777963956 | 12.78° C | 84% | 1018.6 hPa | 0 mm | 0 m/s | - | - |
| 1777963355 | 12.78° C | 84% | 1018.6 hPa | 0 mm | 0 m/s | - | - |
| 1777962754 | 12.78° C | 84% | 1018.5 hPa | 0 mm | 0 m/s | - | - |
| 1777962153 | 12.78° C | 85% | 1018.5 hPa | 0 mm | 0 m/s | - | - |
| 1777961552 | 12.78° C | 85% | 1018.5 hPa | 0 mm | 0 m/s | - | - |
| 1777960952 | 12.78° C | 85% | 1018.3 hPa | 0 mm | 0 m/s | - | - |
| 1777960350 | 12.78° C | 85% | 1018.4 hPa | 0 mm | 0 m/s | - | - |
* Rain latest hour (hover to see other rain measurements)
** Current wind speed in m/s (hover to see current wind gust speed)